This demonstration page uses our WeatherBlox Daily Observations layout. Learn more.

Left ArrowRight Arrow

38.83388, -104.82136

Hourly Observations for April 1, 2017

Temp ( °F °C ) Dew Point ( °F °C ) Humidity (%) Winds ( mph kmh ) Pressure ( in mb ) Visibility ( mi km ) Precip ( " mm )
12:28 am 00:28 Mostly Cloudy with Light Snow 30 -1 30 -1 100 100 N 8 13 30.06 1018 5 8 0.00 0.00
12:43 am 00:43 Mostly Cloudy with Light Snow 30 -1 30 -1 100 100 N 9 15 30.06 1018 7 11 0.00 0.00
12:58 am 00:58 Cloudy with Light Snow 29 -1.6 30 -1.3 100 100 NNW 6 9 29.80 1009 10 16 0.02 0.51
1:28 am 01:28 Cloudy with Light Snow Showers 30 -1 30 -1 100 100 NNE 5 7 30.06 1018 10 16 0.00 0.00
1:33 am 01:33 Cloudy with Light Snow Showers 30 -1 30 -1 100 100 N 6 9 30.06 1018 2 2 0.00 0.00
1:58 am 01:58 Cloudy with Light Snow Showers 29 -1.4 30 -1.2 100 100 N 15 24 29.78 1009 2 4 0.02 0.51
2:03 am 02:03 Cloudy with Light Snow 30 -1 30 -1 100 100 N 14 22 30.06 1018 2 4 0.00 0.00
2:08 am 02:08 Cloudy with Light Snow 30 -1 30 -1 100 100 N 15 24 30.06 1018 3 4 0.00 0.00
2:58 am 02:58 Cloudy with Light Snow 29 -1.5 29 -1.4 100 100 NW 13 20 29.81 1009 3 4 0.01 0.25
3:58 am 03:58 Cloudy with Light Snow 29 -1.8 29 -1.7 100 100 NNW 15 24 29.82 1010 10 16 0.01 0.25
4:18 am 04:18 Cloudy 28 -2 28 -2 100 100 NNW 14 22 30.15 1021 10 16 0.00 0.00
4:38 am 04:38 Cloudy 28 -2 28 -2 100 100 NNW 15 24 30.15 1021 10 16 0.00 0.00
4:47 am 04:47 Mostly Cloudy with Light Snow Showers 28 -2 28 -2 100 100 NNW 15 24 30.15 1021 10 16 0.00 0.00
4:52 am 04:52 Mostly Cloudy with Light Snow Showers 28 -2 28 -2 100 100 NNW 14 22 30.15 1021 10 16 0.00 0.00
4:58 am 04:58 Mostly Cloudy with Light Snow Showers 29 -1.8 29 -1.9 99 99 N 12 19 29.84 1011 10 16 0.00 0.00
5:38 am 05:38 Mostly Cloudy with Light Snow 28 -2 28 -2 100 100 NNW 15 24 30.15 1021 10 16 0.00 0.00
5:41 am 05:41 Mostly Cloudy with Light Freezing Drizzle 28 -2 28 -2 100 100 N 14 22 30.15 1021 10 16 0.00 0.00
5:58 am 05:58 Mostly Cloudy with Light Freezing Drizzle 29 -1.7 28 -2.1 97 97 N 15 24 29.86 1011 8 13 0.00 0.00
6:07 am 06:07 Mostly Cloudy with Light Freezing Drizzle 28 -2 28 -2 100 100 N 12 19 30.18 1022 5 8 0.00 0.00
6:12 am 06:12 Mostly Cloudy with Light Freezing Drizzle 28 -2 28 -2 100 100 NNW 14 22 30.18 1022 5 8 0.00 0.00
6:14 am 06:14 Mostly Cloudy with Light Freezing Drizzle 28 -2 28 -2 100 100 NNW 14 22 30.18 1022 4 6 0.00 0.00
6:29 am 06:29 Mostly Cloudy with Light Freezing Rain 28 -2 28 -2 100 100 N 17 28 30.15 1021 4 6 0.00 0.00
6:58 am 06:58 Cloudy with Light Freezing Drizzle 29 -1.8 28 -2.2 97 97 N 15 24 29.86 1011 9 14 0.00 0.00
7:06 am 07:06 Cloudy 28 -2 28 -2 100 100 N 13 20 30.18 1022 10 16 0.00 0.00
7:16 am 07:16 Cloudy with Light Snow 28 -2 28 -2 100 100 N 17 28 30.18 1022 6 10 0.00 0.00
7:58 am 07:58 Cloudy with Light Snow 29 -1.8 28 -2.1 98 98 NNW 14 22 29.88 1012 10 16 0.00 0.00
8:18 am 08:18 Cloudy with Light Snow 28 -2 28 -2 100 100 NNW 12 19 30.18 1022 3 4 0.00 0.00
8:58 am 08:58 Cloudy with Light Snow 29 -1.7 28 -2 98 98 N 9 15 29.89 1012 10 16 0.01 0.25
9:23 am 09:23 Cloudy with Light Snow 28 -2 28 -2 100 100 NNW 9 15 30.18 1022 10 16 0.00 0.00
9:58 am 09:58 Cloudy with Light Snow 29 -1.5 28 -2.3 94 94 N 10 17 29.89 1012 8 13 0.01 0.25
10:13 am 10:13 Cloudy with Light Snow 28 -2 28 -2 100 100 NNW 7 11 30.18 1022 7 11 0.00 0.00
10:28 am 10:28 Cloudy with Snow 28 -2 28 -2 100 100 N 8 13 30.18 1022 3 5 0.00 0.00
10:38 am 10:38 Mostly Cloudy with Heavy Snow 28 -2 28 -2 100 100 NNW 7 11 30.18 1022 0 0 0.00 0.00
10:48 am 10:48 Cloudy with Heavy Snow 28 -2 28 -2 100 100 N 7 11 30.18 1022 1 1 0.00 0.00
10:58 am 10:58 Cloudy with Snow 29 -1.8 28 -2.1 98 98 N 6 9 29.92 1013 1 1 0.02 0.51
11:23 am 11:23 Mostly Cloudy with Heavy Snow 28 -2 28 -2 100 100 N 7 11 30.18 1022 0 0 0.00 0.00
11:28 am 11:28 Mostly Cloudy with Heavy Snow 28 -2 28 -2 100 100 N 7 11 30.18 1022 3 5 0.00 0.00
11:38 am 11:38 Cloudy with Heavy Snow 28 -2 28 -2 100 100 N 6 9 30.18 1022 0 0 0.00 0.00
11:53 am 11:53 Mostly Cloudy with Heavy Snow 28 -2 28 -2 100 100 N 6 9 30.18 1022 0 0 0.00 0.00
11:58 am 11:58 Mostly Cloudy with Heavy Snow 29 -1.9 28 -2 99 99 N 8 13 29.89 1012 0 0 0.02 0.51
12:03 pm 12:03 Mostly Cloudy with Heavy Snow 28 -2 28 -2 100 100 N 7 11 30.18 1022 0 0 0.00 0.00
12:08 pm 12:08 Mostly Cloudy with Heavy Snow 28 -2 28 -2 100 100 N 7 11 30.18 1022 0 0 0.00 0.00
12:23 pm 12:23 Mostly Cloudy with Heavy Snow 28 -2 28 -2 100 100 N 7 11 30.18 1022 0 0 0.00 0.00
12:28 pm 12:28 Mostly Cloudy with Heavy Snow 28 -2 28 -2 100 100 N 8 13 30.18 1022 0 0 0.00 0.00
12:48 pm 12:48 Cloudy with Heavy Snow 28 -2 28 -2 100 100 NNW 3 6 30.18 1022 3 5 0.00 0.00
12:58 pm 12:58 Cloudy with Snow 29 -1.8 29 -1.9 99 99 N 6 9 29.88 1012 5 8 0.03 0.76
1:13 pm 13:13 Mostly Cloudy with Heavy Snow 30 -1 28 -2 93 93 N 7 11 30.15 1021 0 0 0.00 0.00
1:43 pm 13:43 Mostly Cloudy with Heavy Snow 30 -1 30 -1 100 100 N 8 13 30.15 1021 3 5 0.00 0.00
1:58 pm 13:58 Mostly Cloudy with Snow 30 -1 30 -1 100 100 N 8 13 29.86 1011 1 2 0.06 1.52
2:18 pm 14:18 Mostly Cloudy with Light Snow 30 -1 30 -1 100 100 N 7 11 30.15 1021 1 2 0.00 0.00
2:33 pm 14:33 Mostly Cloudy with Light Snow 30 -1 30 -1 100 100 N 9 15 30.12 1020 3 4 0.00 0.00
2:58 pm 14:58 Mostly Cloudy with Light Rain/Snow 30 -0.9 30 -1.1 99 99 NNE 9 15 29.85 1011 2 3 0.13 3.30
3:58 pm 15:58 Mostly Cloudy with Light Snow 31 -0.5 31 -0.8 98 98 N 6 9 29.83 1010 5 8 0.04 1.02
4:13 pm 16:13 Mostly Cloudy with Light Rain/Snow 32 0 30 -1 93 93 N 3 6 30.09 1019 10 16 0.00 0.00
4:18 pm 16:18 Mostly Cloudy with Light Rain/Snow 32 0 30 -1 93 93 NNE 3 6 30.09 1019 10 16 0.00 0.00
4:54 pm 16:54 Cloudy 32 0 30 -1 93 93 Calm 30.09 1019 10 16 0.00 0.00
4:58 pm 16:58 Cloudy 32 -0.1 30 -1 94 94 Calm 29.83 1010 10 16 0.00 0.00
5:06 pm 17:06 Cloudy with Light Showers 32 0 30 -1 93 93 N 3 6 30.09 1019 10 16 0.00 0.00
5:46 pm 17:46 Mostly Cloudy with Light Showers 32 0 32 0 100 100 Calm 30.09 1019 10 16 0.00 0.00
5:51 pm 17:51 Mostly Cloudy 32 0 30 -1 93 93 Calm 30.09 1019 10 16 0.00 0.00
5:56 pm 17:56 Mostly Cloudy 32 0 30 -1 93 93 S 3 6 30.09 1019 10 16 0.00 0.00
5:58 pm 17:58 Mostly Cloudy with Light Rain/Snow 33 0.3 33 0.5 100 100 ESE 8 13 29.62 1003 1 2 0.00 0.00
6:04 pm 18:04 Mostly Cloudy with Light Showers 32 0 30 -1 93 93 Calm 30.03 1017 10 16 0.00 0.00
6:19 pm 18:19 Cloudy with Light Showers 32 0 32 0 100 100 SSE 3 6 30.09 1019 4 6 0.00 0.00
6:40 pm 18:40 Mostly Cloudy 32 0 32 0 100 100 SSE 10 17 30.03 1017 10 16 0.00 0.00
6:47 pm 18:47 Mostly Cloudy with Light Showers 32 0 30 -1 93 93 SSE 13 20 30.03 1017 10 16 0.00 0.00
6:52 pm 18:52 Mostly Cloudy with Light Showers 32 0 32 0 100 100 SSE 13 20 30.03 1017 10 16 0.00 0.00
6:58 pm 18:58 Mostly Cloudy with Light Showers 31 -0.4 31 -0.5 99 99 S 9 15 29.81 1009 10 16 0.00 0.00
7:08 pm 19:08 Mostly Cloudy with Light Snow Showers 32 0 30 -1 93 93 S 9 15 30.03 1017 7 11 0.00 0.00
7:18 pm 19:18 Mostly Cloudy with Light Snow Showers 32 0 30 -1 93 93 SSW 8 13 30.03 1017 10 16 0.00 0.00
7:35 pm 19:35 Mostly Cloudy 32 0 30 -1 93 93 S 9 15 30.03 1017 10 16 0.00 0.00
7:58 pm 19:58 Mostly Cloudy 31 -0.5 30 -1.1 96 96 S 10 17 29.80 1009 10 16 0.00 0.00
8:18 pm 20:18 Mostly Cloudy 30 -1 30 -1 100 100 S 12 19 30.06 1018 10 16 0.00 0.00
8:38 pm 20:38 Mostly Cloudy 30 -1 30 -1 100 100 S 9 15 30.06 1018 7 11 0.00 0.00
8:43 pm 20:43 Mostly Cloudy with Mist and Fog 30 -1 30 -1 100 100 SSE 12 19 30.06 1018 6 10 0.00 0.00
8:46 pm 20:46 Mostly Cloudy with Light Rain 30 -1 30 -1 100 100 S 13 20 30.06 1018 5 8 0.00 0.00
8:58 pm 20:58 Mostly Cloudy with Light Rain 31 -0.6 31 -0.8 99 99 S 7 11 29.80 1009 3 4 0.00 0.00
9:17 pm 21:17 Mostly Cloudy 32 0 30 -1 93 93 Calm 30.03 1017 10 16 0.00 0.00
9:58 pm 21:58 Cloudy 31 -0.6 31 -0.8 99 99 N 6 9 29.82 1010 7 11 0.00 0.00
10:28 pm 22:28 Mostly Cloudy with Fog 32 0 30 -1 93 93 Calm 30.03 1017 1 2 0.00 0.00
10:58 pm 22:58 Mostly Cloudy with Fog 31 -0.6 31 -0.6 100 100 SSE 6 9 29.80 1009 1 2 0.00 0.00
11:53 pm 23:53 Mostly Cloudy with Fog 30 -1 30 -1 100 100 Calm 30.03 1017 1 2 0.00 0.00
11:58 pm 23:58 Mostly Cloudy with Fog 31 -0.6 31 -0.5 100 100 Calm 29.79 1009 1 2 0.00 0.00

Powered by AerisWeather